User: anonymous   Login
Location: Ocean City
(38.3360°N, 75.0850°W)
Time: 22:38:26
(UTC-04:00)
Language:

AIST 2D - Orbit

View from above orbital plane
View from above orbital plane
View from above satellite
View from above satellite

Ground track
Ground track

The orbit data is extracted from the following two-line orbital elements,

1 41465U 16026B   19142.82286878  .00001161  00000-0  37912-4 0  9996
2 41465  97.1926  38.8937 0009844 212.0060 190.2813 15.33708996171385
Epoch (UTC): 22 May 2019 19:44:55
Eccentricity: 0.0009844
inclination: 97.1926°
perigee height: 458 km
apogee height: 471 km
right ascension of ascending node: 38.8937°
argument of perigee: 212.0060°
revolutions per day: 15.33708996
mean anomaly at epoch: 190.2813°
orbit number at epoch: 17138

The dashed part of the orbit path shows where the satellite is in the earth's shadow,  

DLR